When you browse on this site, cookies collect data to enhance your experience and personalize the content and advertising you see.
Visit our Privacy Policy to learn more. By continuing to use the site, you agree to this use of cookies and data.
  • In Österreich
  • Länderverzeichnis
  • Für 7 Tage
  • Wassertemperatur
  • Wetterkarte
  • News
  • Widgets
  • user-avatar
    Anmelden

    Stündliche Wetter Essen

    Heute, 2 Juni, Dienstag

    Zeit Temperatur Niederschläge Wind Luftdruck Luftfeuchtigkeit
    00:00 +17°C° 0 mm 2 m/S 757 mmHg 72%
    01:00 +17°C° 0 mm 2 m/S 757 mmHg 74%
    02:00 +16°C° 0 mm 2 m/S 757 mmHg 75%
    03:00 +15°C° 0 mm 2 m/S 756 mmHg 76%
    04:00 +16°C° 0 mm 2 m/S 756 mmHg 72%
    05:00 +17°C° 0 mm 2 m/S 756 mmHg 67%
    06:00 +18°C° 0 mm 2 m/S 756 mmHg 63%
    07:00 +21°C° 0 mm 1 m/S 756 mmHg 57%
    08:00 +23°C° 0 mm 1 m/S 756 mmHg 50%
    09:00 +25°C° 0 mm 1 m/S 756 mmHg 44%
    10:00 +26°C° 0 mm 1 m/S 755 mmHg 40%
    11:00 +28°C° 0 mm 1 m/S 755 mmHg 36%
    12:00 +29°C° 0 mm 1 m/S 754 mmHg 32%
    13:00 +29°C° 0 mm 2 m/S 754 mmHg 33%
    14:00 +29°C° 0 mm 2 m/S 753 mmHg 33%
    15:00 +28°C° 0 mm 2 m/S 752 mmHg 34%
    16:00 +27°C° 0 mm 2 m/S 752 mmHg 40%
    17:00 +26°C° 0 mm 2 m/S 752 mmHg 45%
    18:00 +25°C° 0 mm 1 m/S 751 mmHg 51%
    19:00 +24°C° 0 mm 1 m/S 751 mmHg 56%
    20:00 +22°C° 0 mm 1 m/S 751 mmHg 60%
    21:00 +21°C° 0 mm 1 m/S 751 mmHg 65%
    22:00 +20°C° 0 mm 1 m/S 750 mmHg 68%
    23:00 +20°C° 0 mm 1 m/S 750 mmHg 71%

    Morgen, 3 Juni, Mittwoch

    Zeit Temperatur Niederschläge Wind Luftdruck Luftfeuchtigkeit
    00:00 +19°C° 0 mm 1 m/S 749 mmHg 74%
    01:00 +18°C° 0.3 mm 1 m/S 749 mmHg 77%
    02:00 +16°C° 0.3 mm 2 m/S 748 mmHg 80%
    03:00 +16°C° 0.3 mm 2 m/S 748 mmHg 83%
    04:00 +16°C° 0.1 mm 2 m/S 747 mmHg 81%
    05:00 +16°C° 0.1 mm 2 m/S 747 mmHg 79%
    06:00 +17°C° 0.1 mm 2 m/S 747 mmHg 76%
    07:00 +18°C° 0 mm 2 m/S 747 mmHg 67%
    08:00 +20°C° 0 mm 2 m/S 746 mmHg 58%
    09:00 +23°C° 0 mm 2 m/S 746 mmHg 49%
    10:00 +24°C° 0 mm 2 m/S 746 mmHg 46%
    11:00 +25°C° 0 mm 3 m/S 745 mmHg 42%
    12:00 +26°C° 0 mm 3 m/S 745 mmHg 39%
    13:00 +26°C° 0 mm 3 m/S 744 mmHg 38%
    14:00 +26°C° 0 mm 3 m/S 744 mmHg 38%
    15:00 +26°C° 0 mm 3 m/S 743 mmHg 38%
    16:00 +25°C° 0 mm 2 m/S 743 mmHg 43%
    17:00 +24°C° 0 mm 2 m/S 743 mmHg 47%
    18:00 +23°C° 0 mm 2 m/S 742 mmHg 51%
    19:00 +21°C° 0 mm 2 m/S 742 mmHg 56%
    20:00 +20°C° 0 mm 2 m/S 742 mmHg 61%
    21:00 +19°C° 0 mm 1 m/S 742 mmHg 65%
    22:00 +19°C° 0 mm 1 m/S 741 mmHg 70%
    23:00 +18°C° 0 mm 1 m/S 741 mmHg 74%

    übermorgen, 4 Juni, Donnerstag

    Zeit Temperatur Niederschläge Wind Luftdruck Luftfeuchtigkeit
    00:00 +18°C° 0 mm 1 m/S 741 mmHg 79%
    01:00 +16°C° 0.2 mm 1 m/S 740 mmHg 81%
    02:00 +16°C° 0.2 mm 2 m/S 740 mmHg 84%
    03:00 +16°C° 0.2 mm 2 m/S 739 mmHg 86%
    04:00 +16°C° 0.3 mm 2 m/S 739 mmHg 86%
    05:00 +14°C° 0.3 mm 3 m/S 739 mmHg 85%
    06:00 +14°C° 0.3 mm 3 m/S 739 mmHg 85%
    07:00 +16°C° 0 mm 3 m/S 739 mmHg 83%
    08:00 +16°C° 0 mm 3 m/S 738 mmHg 81%
    09:00 +15°C° 0 mm 4 m/S 738 mmHg 79%
    10:00 +15°C° 0.6 mm 4 m/S 738 mmHg 78%
    11:00 +16°C° 0.6 mm 5 m/S 738 mmHg 78%
    12:00 +16°C° 0.6 mm 5 m/S 738 mmHg 77%
    13:00 +15°C° 0.4 mm 5 m/S 738 mmHg 79%
    14:00 +13°C° 0.4 mm 5 m/S 738 mmHg 81%
    15:00 +12°C° 0.4 mm 4 m/S 738 mmHg 84%
    16:00 +12°C° 0.1 mm 4 m/S 738 mmHg 83%
    17:00 +12°C° 0.1 mm 4 m/S 739 mmHg 82%
    18:00 +11°C° 0.1 mm 4 m/S 739 mmHg 82%
    19:00 +11°C° 0 mm 4 m/S 739 mmHg 80%
    20:00 +10°C° 0 mm 3 m/S 740 mmHg 79%
    21:00 +10°C° 0 mm 3 m/S 740 mmHg 78%
    22:00 +9°C° 0 mm 3 m/S 740 mmHg 78%
    23:00 +9°C° 0 mm 3 m/S 740 mmHg 79%

    5 Juni, Freitag

    Zeit Temperatur Niederschläge Wind Luftdruck Luftfeuchtigkeit
    00:00 +8°C° 0 mm 3 m/S 740 mmHg 79%
    01:00 +8°C° 0 mm 3 m/S 740 mmHg 80%
    02:00 +8°C° 0 mm 3 m/S 740 mmHg 81%
    03:00 +7°C° 0 mm 3 m/S 740 mmHg 82%
    04:00 +7°C° 0 mm 4 m/S 740 mmHg 79%
    05:00 +8°C° 0 mm 4 m/S 740 mmHg 77%
    06:00 +10°C° 0 mm 4 m/S 740 mmHg 74%
    07:00 +8°C° 0.9 mm 4 m/S 740 mmHg 76%
    08:00 +8°C° 0.9 mm 4 m/S 740 mmHg 79%
    09:00 +9°C° 0.9 mm 3 m/S 740 mmHg 81%
    10:00 +11°C° 0.3 mm 4 m/S 740 mmHg 73%
    11:00 +13°C° 0.3 mm 4 m/S 740 mmHg 65%
    12:00 +14°C° 0.3 mm 5 m/S 740 mmHg 57%
    13:00 +14°C° 0.4 mm 5 m/S 740 mmHg 55%
    14:00 +15°C° 0.4 mm 5 m/S 740 mmHg 53%
    15:00 +15°C° 0.4 mm 5 m/S 740 mmHg 50%
    16:00 +15°C° 0.1 mm 5 m/S 740 mmHg 51%
    17:00 +14°C° 0.1 mm 5 m/S 741 mmHg 53%
    18:00 +13°C° 0.1 mm 4 m/S 741 mmHg 54%
    19:00 +12°C° 0 mm 3 m/S 741 mmHg 55%
    20:00 +11°C° 0 mm 3 m/S 741 mmHg 57%
    21:00 +10°C° 0 mm 2 m/S 741 mmHg 59%
    22:00 +10°C° 0.1 mm 3 m/S 741 mmHg 64%
    23:00 +10°C° 0.1 mm 4 m/S 741 mmHg 68%

    6 Juni, Samstag

    Zeit Temperatur Niederschläge Wind Luftdruck Luftfeuchtigkeit
    00:00 +10°C° 0.1 mm 4 m/S 741 mmHg 73%
    01:00 +8°C° 0.5 mm 4 m/S 741 mmHg 76%
    02:00 +8°C° 0.5 mm 5 m/S 741 mmHg 80%
    03:00 +8°C° 0.5 mm 5 m/S 741 mmHg 84%
    04:00 +9°C° 0.2 mm 5 m/S 741 mmHg 82%
    05:00 +9°C° 0.2 mm 5 m/S 741 mmHg 79%
    06:00 +10°C° 0.2 mm 5 m/S 741 mmHg 76%
    07:00 +12°C° 0.2 mm 5 m/S 741 mmHg 70%
    08:00 +13°C° 0.2 mm 6 m/S 741 mmHg 64%
    09:00 +14°C° 0.2 mm 6 m/S 742 mmHg 58%
    10:00 +14°C° 0.3 mm 6 m/S 742 mmHg 54%
    11:00 +15°C° 0.3 mm 7 m/S 742 mmHg 50%
    12:00 +16°C° 0.3 mm 7 m/S 742 mmHg 46%
    13:00 +16°C° 0 mm 7 m/S 743 mmHg 44%
    14:00 +15°C° 0 mm 7 m/S 743 mmHg 42%
    15:00 +15°C° 0 mm 7 m/S 743 mmHg 40%
    16:00 +15°C° 0 mm 6 m/S 744 mmHg 43%
    17:00 +14°C° 0 mm 6 m/S 744 mmHg 46%
    18:00 +13°C° 0 mm 5 m/S 744 mmHg 49%
    19:00 +12°C° 0 mm 5 m/S 745 mmHg 52%
    20:00 +11°C° 0 mm 4 m/S 745 mmHg 55%
    21:00 +10°C° 0 mm 3 m/S 746 mmHg 58%
    22:00 +10°C° 0 mm 3 m/S 746 mmHg 59%
    23:00 +8°C° 0 mm 4 m/S 746 mmHg 60%

    7 Juni, Sonntag

    Zeit Temperatur Niederschläge Wind Luftdruck Luftfeuchtigkeit
    00:00 +8°C° 0 mm 4 m/S 746 mmHg 61%
    01:00 +8°C° 0 mm 4 m/S 746 mmHg 66%
    02:00 +7°C° 0 mm 4 m/S 746 mmHg 70%
    03:00 +7°C° 0 mm 4 m/S 747 mmHg 75%
    04:00 +7°C° 0 mm 4 m/S 747 mmHg 71%
    05:00 +8°C° 0 mm 4 m/S 747 mmHg 68%
    06:00 +9°C° 0 mm 5 m/S 747 mmHg 64%
    07:00 +10°C° 0 mm 5 m/S 748 mmHg 59%
    08:00 +12°C° 0 mm 5 m/S 748 mmHg 54%
    09:00 +13°C° 0 mm 5 m/S 748 mmHg 49%
    10:00 +13°C° 0.1 mm 5 m/S 749 mmHg 48%
    11:00 +13°C° 0.1 mm 5 m/S 749 mmHg 47%
    12:00 +14°C° 0.1 mm 5 m/S 749 mmHg 46%
    13:00 +14°C° 0 mm 5 m/S 749 mmHg 46%
    14:00 +14°C° 0 mm 5 m/S 749 mmHg 45%
    15:00 +14°C° 0 mm 4 m/S 750 mmHg 44%
    16:00 +14°C° 0 mm 4 m/S 750 mmHg 46%
    17:00 +14°C° 0 mm 3 m/S 750 mmHg 49%
    18:00 +14°C° 0 mm 3 m/S 750 mmHg 51%
    19:00 +13°C° 0 mm 3 m/S 751 mmHg 55%
    20:00 +12°C° 0 mm 2 m/S 751 mmHg 60%
    21:00 +10°C° 0 mm 2 m/S 752 mmHg 64%
    22:00 +10°C° 0 mm 2 m/S 752 mmHg 66%
    23:00 +9°C° 0 mm 2 m/S 752 mmHg 67%
    Mehr zeigen